Weather in Kashkarovo

Russia / Republic of Bashkortostan     52°20′29″N   57°45′59″E
temp.,
°C
wind,
m/s
gust,
m/s
humid.,
%
clouds,
%
prec.,
mm/h
press.,
hPa
HPBL,
m
15 may, sat
sat1523:00+15wnw22530 0.0 102611
02:00+14wnw22530 0.0 102611
05:00+13nw11545 0.0 102611
08:00+19nnw11461 0.0 102691
11:00+25n11325 0.0 10251384
14:00+27ese12265 0.0 10242255
17:00+27sw122840 0.0 10242342
20:00+21w37562 0.0 1024111
16 may, sun
sun1623:00+16n246922 0.1 102560
02:00+15ne1170100 0.0 102411
05:00+14w00685 0.0 102411
08:00+19nw11555 0.0 1025118
11:00+25sw22320 0.0 10241279
14:00+27ssw33261 0.0 10232377
17:00+26sw43270 0.0 10222268
20:00+21w22490 0.0 102218
17 may, mon
mon1723:00+16n11660 0.0 102311
02:00+16wsw11593 0.0 102311
05:00+16wnw115515 0.0 102311
08:00+21s124630 0.0 1024105
11:00+26sw23315 0.0 10231835
14:00+28sw442521 0.0 10223418
17:00+27wsw442912 0.0 10212835
20:00+22wsw22504 0.0 102118
18 may, tue
tue1823:00+17nne115761 0.0 102211
02:00+16s115999 0.0 102211
05:00+15wnw11634 0.0 102111
08:00+20nw12495 0.0 1021120
11:00+26nw22275 0.0 10202850
14:00+28nnw122566 0.0 10183287
17:00+24wnw354099 0.0 1018413
20:00+21nw365416 0.0 1018103
19 may, wed
wed1923:00+17n336019 0.0 101933
02:00+16nne34613 0.0 101849
05:00+15ne23655 0.0 101838
08:00+19ene5960100 0.0 1019338
11:00+22ene6750100 0.0 1019898
14:00+25e664062 0.0 10191742
17:00+25e554095 0.0 10191965
20:00+20e510554 0.0 1019363